Regional Weather Roundup
Issued by NWS Goodland, KS

Home | Current Version | Previous Version | Graphics & Text | Print | Product List | Glossary On
Versions: 1 2 3 4 5 6 7 8 9 10 11 12 13 14 15 16 17 18 19 20 21 22 23 24 25 26 27 28 29 30 31 32 33 34 35 36 37 38 39 40 41 42 43 44 45 46 47 48 49 50
000
ASUS43 KGLD 010459
RWRGLD

GOODLAND FORECAST AREA HOURLY WEATHER ROUNDUP
NATIONAL WEATHER SERVICE GOODLAND KS
1100 PM MDT WED AUG 31 2016

...OFFICIAL OBSERVATIONS...

CITY           SKY/WX    TMP DP  RH WIND       PRES   REMARKS
GOODLAND KS    CLOUDY    65  63  93 SE7       30.26R
HILL CITY KS   CLOUDY    64  63  96 CALM      30.21S
IMPERIAL NEB   CLEAR     62  60  93 SE6       30.26R
MCCOOK NEB     PTCLDY    65  62  90 CALM      30.23R
AKRON CO       CLOUDY    62  59  90 SE14      30.29S
BURLINGTON CO  FOG       63  61  93 SE8       30.28S VSB 1/2
LIMON CO       CLOUDY    58  57  97 SE8       30.33S
$$

...UNOFFICIAL OBSERVATIONS...

CITY           SKY/WX    TMP DP  RH WIND       PRES   REMARKS
COLBY KS       MOCLDY    64  64 100 E5        30.26R FOG
LENORA KS        N/A     66  32  28 MISG        N/A
NORTON KS      CLOUDY    64  63  94 CALM      30.22S
SHARON SPRINGS   N/A     64  62  95 CALM        N/A
TRENTON NEB      N/A     64  32  30 MISG        N/A
KIT CARSON CO    N/A     63  58  83 MISG        N/A
YUMA CO          N/A     63  61  93 CALM        N/A
$$




USA.gov is the U.S. government's official web portal to all federal, state and local government web resources and services.